EN

Hourly Weather Abadin

Today, 12 June, Saturday

Time Temperature Precipitation Wind Pressure Humidity
00:00 +12°C° 0 mm 3 mps 710 mmHg 91%
01:00 +12°C° 0 mm 3 mps 710 mmHg 91%
02:00 +12°C° 0 mm 3 mps 709 mmHg 91%
03:00 +13°C° 0 mm 2 mps 709 mmHg 91%
04:00 +13°C° 0 mm 2 mps 709 mmHg 92%
05:00 +13°C° 0 mm 2 mps 709 mmHg 92%
06:00 +15°C° 0 mm 2 mps 710 mmHg 82%
07:00 +17°C° 0 mm 3 mps 710 mmHg 72%
08:00 +19°C° 0 mm 3 mps 711 mmHg 62%
09:00 +21°C° 0 mm 3 mps 711 mmHg 58%
10:00 +22°C° 0 mm 3 mps 711 mmHg 54%
11:00 +24°C° 0 mm 3 mps 711 mmHg 52%
12:00 +24°C° 0 mm 3 mps 711 mmHg 53%
13:00 +23°C° 0 mm 4 mps 711 mmHg 54%
14:00 +23°C° 0 mm 4 mps 711 mmHg 55%
15:00 +22°C° 0 mm 4 mps 710 mmHg 60%
16:00 +21°C° 0 mm 3 mps 710 mmHg 65%
17:00 +20°C° 0 mm 3 mps 710 mmHg 70%
18:00 +18°C° 0 mm 3 mps 710 mmHg 78%
19:00 +17°C° 0 mm 2 mps 710 mmHg 86%
20:00 +15°C° 0 mm 2 mps 710 mmHg 95%
21:00 +15°C° 0 mm 2 mps 710 mmHg 95%
22:00 +15°C° 0 mm 2 mps 710 mmHg 96%
23:00 +15°C° 0 mm 2 mps 710 mmHg 96%

Tomorrow, 13 June, Sunday

Time Temperature Precipitation Wind Pressure Humidity
00:00 +14°C° 0 mm 1 mps 710 mmHg 97%
01:00 +14°C° 0 mm 1 mps 709 mmHg 97%
02:00 +14°C° 0 mm 1 mps 709 mmHg 97%
03:00 +14°C° 0 mm 1 mps 709 mmHg 95%
04:00 +14°C° 0 mm 1 mps 709 mmHg 94%
05:00 +15°C° 0 mm 1 mps 709 mmHg 92%
06:00 +19°C° 0 mm 1 mps 709 mmHg 77%
07:00 +23°C° 0 mm 1 mps 710 mmHg 62%
08:00 +26°C° 0 mm 1 mps 710 mmHg 47%
09:00 +28°C° 0 mm 1 mps 710 mmHg 43%
10:00 +29°C° 0 mm 1 mps 710 mmHg 38%
11:00 +31°C° 0 mm 2 mps 710 mmHg 33%
12:00 +28°C° 0.4 mm 2 mps 710 mmHg 47%
13:00 +25°C° 0.4 mm 2 mps 709 mmHg 60%
14:00 +21°C° 0.4 mm 2 mps 709 mmHg 74%
15:00 +21°C° 1.7 mm 1 mps 709 mmHg 81%
16:00 +20°C° 1.7 mm 1 mps 709 mmHg 87%
17:00 +18°C° 1.7 mm 1 mps 710 mmHg 94%
18:00 +18°C° 1.9 mm 1 mps 710 mmHg 96%
19:00 +16°C° 1.9 mm 1 mps 710 mmHg 97%
20:00 +16°C° 1.9 mm 1 mps 711 mmHg 99%
21:00 +15°C° 0.1 mm 1 mps 710 mmHg 99%
22:00 +15°C° 0.1 mm 1 mps 710 mmHg 99%
23:00 +15°C° 0.1 mm 1 mps 709 mmHg 99%

Day after tomorrow, 14 June, Monday

Time Temperature Precipitation Wind Pressure Humidity
00:00 +13°C° 0 mm 0 mps 709 mmHg 99%
01:00 +13°C° 0 mm 0 mps 709 mmHg 99%
02:00 +13°C° 0 mm 0 mps 709 mmHg 99%
03:00 +13°C° 0 mm 0 mps 709 mmHg 98%
04:00 +13°C° 0 mm 0 mps 709 mmHg 98%
05:00 +14°C° 0 mm 0 mps 710 mmHg 98%
06:00 +16°C° 0 mm 0 mps 710 mmHg 87%
07:00 +18°C° 0 mm 0 mps 710 mmHg 76%
08:00 +23°C° 0 mm 1 mps 711 mmHg 66%
09:00 +25°C° 0 mm 1 mps 711 mmHg 57%
10:00 +27°C° 0 mm 1 mps 711 mmHg 48%
11:00 +29°C° 0 mm 2 mps 711 mmHg 39%
12:00 +28°C° 0.4 mm 2 mps 711 mmHg 45%
13:00 +27°C° 0.4 mm 3 mps 710 mmHg 51%
14:00 +25°C° 0.4 mm 3 mps 710 mmHg 57%
15:00 +24°C° 0.8 mm 2 mps 710 mmHg 66%
16:00 +21°C° 0.8 mm 2 mps 710 mmHg 75%
17:00 +20°C° 0.8 mm 1 mps 710 mmHg 84%
18:00 +19°C° 0 mm 1 mps 710 mmHg 89%
19:00 +16°C° 0 mm 1 mps 710 mmHg 94%
20:00 +15°C° 0 mm 1 mps 710 mmHg 98%
21:00 +15°C° 0 mm 1 mps 710 mmHg 98%
22:00 +14°C° 0 mm 1 mps 709 mmHg 98%
23:00 +14°C° 0 mm 1 mps 709 mmHg 98%

15 June, Tuesday

Time Temperature Precipitation Wind Pressure Humidity
00:00 +14°C° 0 mm 1 mps 709 mmHg 98%
01:00 +14°C° 0 mm 1 mps 708 mmHg 98%
02:00 +14°C° 0 mm 1 mps 708 mmHg 98%
03:00 +14°C° 0 mm 1 mps 708 mmHg 97%
04:00 +14°C° 0 mm 1 mps 708 mmHg 97%
05:00 +15°C° 0 mm 1 mps 708 mmHg 96%
06:00 +18°C° 0 mm 1 mps 708 mmHg 83%
07:00 +21°C° 0 mm 1 mps 708 mmHg 70%
08:00 +24°C° 0 mm 1 mps 708 mmHg 57%
09:00 +26°C° 0 mm 2 mps 708 mmHg 51%
10:00 +28°C° 0 mm 2 mps 708 mmHg 44%
11:00 +30°C° 0 mm 2 mps 708 mmHg 38%
12:00 +30°C° 0 mm 2 mps 708 mmHg 38%
13:00 +30°C° 0 mm 2 mps 707 mmHg 38%
14:00 +29°C° 0 mm 3 mps 706 mmHg 39%
15:00 +26°C° 0.7 mm 2 mps 706 mmHg 55%
16:00 +23°C° 0.7 mm 2 mps 706 mmHg 71%
17:00 +20°C° 0.7 mm 1 mps 705 mmHg 86%
18:00 +19°C° 0.3 mm 1 mps 705 mmHg 90%
19:00 +18°C° 0.3 mm 1 mps 705 mmHg 93%
20:00 +16°C° 0.3 mm 1 mps 706 mmHg 96%
21:00 +16°C° 0.1 mm 1 mps 705 mmHg 95%
22:00 +16°C° 0.1 mm 1 mps 705 mmHg 94%
23:00 +16°C° 0.1 mm 1 mps 704 mmHg 93%

16 June, Wednesday

Time Temperature Precipitation Wind Pressure Humidity
00:00 +16°C° 0 mm 1 mps 704 mmHg 93%
01:00 +15°C° 0 mm 1 mps 704 mmHg 93%
02:00 +14°C° 0 mm 0 mps 703 mmHg 93%
03:00 +15°C° 0 mm 1 mps 703 mmHg 93%
04:00 +15°C° 0 mm 1 mps 703 mmHg 93%
05:00 +15°C° 0 mm 1 mps 703 mmHg 94%
06:00 +19°C° 0 mm 1 mps 704 mmHg 82%
07:00 +22°C° 0 mm 1 mps 704 mmHg 70%
08:00 +24°C° 0 mm 1 mps 704 mmHg 58%
09:00 +25°C° 0.2 mm 2 mps 704 mmHg 54%
10:00 +26°C° 0.2 mm 2 mps 704 mmHg 50%
11:00 +27°C° 0.2 mm 2 mps 704 mmHg 46%
12:00 +25°C° 1.4 mm 2 mps 704 mmHg 58%
13:00 +23°C° 1.4 mm 2 mps 703 mmHg 71%
14:00 +19°C° 1.4 mm 3 mps 703 mmHg 83%
15:00 +18°C° 2.8 mm 2 mps 703 mmHg 87%
16:00 +17°C° 2.8 mm 2 mps 703 mmHg 92%
17:00 +16°C° 2.8 mm 1 mps 704 mmHg 96%
18:00 +16°C° 0.3 mm 1 mps 704 mmHg 97%
19:00 +15°C° 0.3 mm 1 mps 704 mmHg 98%
20:00 +15°C° 0.3 mm 1 mps 704 mmHg 98%
21:00 +14°C° 0 mm 1 mps 704 mmHg 99%
22:00 +14°C° 0 mm 1 mps 704 mmHg 99%
23:00 +14°C° 0 mm 1 mps 704 mmHg 99%

17 June, Thursday

Time Temperature Precipitation Wind Pressure Humidity
00:00 +14°C° 0.3 mm 1 mps 704 mmHg 99%
01:00 +14°C° 0.3 mm 1 mps 703 mmHg 99%
02:00 +13°C° 0.3 mm 0 mps 703 mmHg 99%
03:00 +14°C° 0.5 mm 1 mps 703 mmHg 99%
04:00 +14°C° 0.5 mm 1 mps 703 mmHg 99%
05:00 +14°C° 0.5 mm 1 mps 703 mmHg 99%
06:00 +14°C° 0.5 mm 1 mps 704 mmHg 99%
07:00 +14°C° 0.5 mm 1 mps 704 mmHg 99%
08:00 +14°C° 0.5 mm 1 mps 704 mmHg 98%
09:00 +14°C° 0.5 mm 2 mps 704 mmHg 98%
10:00 +14°C° 0.5 mm 2 mps 704 mmHg 98%
11:00 +14°C° 0.5 mm 2 mps 704 mmHg 97%
12:00 +14°C° 0.6 mm 2 mps 704 mmHg 98%
13:00 +12°C° 0.6 mm 3 mps 704 mmHg 98%
14:00 +12°C° 0.6 mm 3 mps 704 mmHg 98%
15:00 +12°C° 1.6 mm 3 mps 704 mmHg 98%
16:00 +12°C° 1.6 mm 3 mps 704 mmHg 98%
17:00 +11°C° 1.6 mm 3 mps 704 mmHg 99%
18:00 +11°C° 1.6 mm 3 mps 705 mmHg 99%
19:00 +12°C° 1.6 mm 2 mps 705 mmHg 99%
20:00 +12°C° 1.6 mm 2 mps 706 mmHg 99%
21:00 +10°C° 1.2 mm 2 mps 706 mmHg 99%
22:00 +10°C° 1.2 mm 2 mps 706 mmHg 99%
23:00 +10°C° 1.2 mm 2 mps 706 mmHg 99%
Show more